Location: Siratepeler Tepesi
(39.1042°N, 32.0781°E)
Time: 00:55:33
(UTC+00:00)

Atlas Centaur 2 - Pass Details

Date: 11 April 2026
Orbit: 456 x 1246 km, 30.4° (Epoch: 11 May)

Event Time Altitude Azimuth Distance (km) Brightness Sun altitude
Rises 17:13:40 0° 261° (W) 3,174 6.4 -9.9°
Reaches altitude 10° 17:16:16 10° 248° (WSW) 2,380 5.3 -10.4°
Maximum altitude 17:21:01 27° 192° (SSW) 1,692 3.7 -11.3°
Enters shadow 17:26:16 11° 140° (SE) 2,740 4.3 -12.2°
